Time,TemperatureF,DewpointF,PressureIn,WindDirection,WindDirectionDegrees,WindSpeedMPH,WindSpeedGustMPH,Humidity,HourlyPrecipIn,Conditions,Clouds,dailyrainin,SolarRadiationWatts/m^2,SoftwareType,DateUTC
2013-03-15 00:04:00,53.9,29.0,29.92,West,276,0.0,-999.0,38,-99.99,,,0.00,0,weatherlink.com 1.10,2013-03-15 06:04:00,
2013-03-15 00:19:00,55.1,28.0,29.91,West,276,0.0,-999.0,36,-99.99,,,0.00,0,weatherlink.com 1.10,2013-03-15 06:19:00,
2013-03-15 00:34:00,55.0,28.0,29.91,West,276,0.0,-999.0,36,-99.99,,,0.00,0,weatherlink.com 1.10,2013-03-15 06:34:00,
2013-03-15 00:50:00,53.9,28.0,29.91,West,276,0.0,-999.0,37,-99.99,,,0.00,0,weatherlink.com 1.10,2013-03-15 06:50:00,
2013-03-15 01:05:00,53.0,28.0,29.91,West,276,0.0,-999.0,38,-99.99,,,0.00,0,weatherlink.com 1.10,2013-03-15 07:05:00,
2013-03-15 01:20:00,53.2,29.0,29.90,West,276,1.0,-999.0,39,-99.99,,,0.00,0,weatherlink.com 1.10,2013-03-15 07:20:00,
2013-03-15 01:35:00,53.3,28.0,29.90,West,276,0.0,-999.0,38,-99.99,,,0.00,0,weatherlink.com 1.10,2013-03-15 07:35:00,
2013-03-15 01:50:00,52.9,28.0,29.90,West,276,0.0,-999.0,38,-99.99,,,0.00,0,weatherlink.com 1.10,2013-03-15 07:50:00,
2013-03-15 02:05:00,51.3,28.0,29.90,West,276,0.0,-999.0,40,-99.99,,,0.00,0,weatherlink.com 1.10,2013-03-15 08:05:00,
2013-03-15 02:20:00,49.6,27.0,29.89,West,276,0.0,-999.0,42,-99.99,,,0.00,0,weatherlink.com 1.10,2013-03-15 08:20:00,
2013-03-15 02:35:00,49.4,28.0,29.88,West,276,0.0,-999.0,43,-99.99,,,0.00,0,weatherlink.com 1.10,2013-03-15 08:35:00,
2013-03-15 02:50:00,48.6,27.0,29.88,West,276,0.0,-999.0,44,-99.99,,,0.00,0,weatherlink.com 1.10,2013-03-15 08:50:00,
2013-03-15 03:05:00,49.1,28.0,29.88,West,276,0.0,-999.0,44,-99.99,,,0.00,0,weatherlink.com 1.10,2013-03-15 09:05:00,
2013-03-15 03:20:00,49.2,28.0,29.87,West,276,0.0,-999.0,44,-99.99,,,0.00,0,weatherlink.com 1.10,2013-03-15 09:20:00,
2013-03-15 03:35:00,48.1,28.0,29.86,West,276,0.0,-999.0,45,-99.99,,,0.00,0,weatherlink.com 1.10,2013-03-15 09:35:00,
2013-03-15 03:50:00,48.4,28.0,29.86,West,276,0.0,-999.0,45,-99.99,,,0.00,0,weatherlink.com 1.10,2013-03-15 09:50:00,
2013-03-15 04:05:00,48.7,28.0,29.85,West,276,0.0,-999.0,45,-99.99,,,0.00,0,weatherlink.com 1.10,2013-03-15 10:05:00,
2013-03-15 04:20:00,47.5,27.0,29.84,West,276,0.0,-999.0,46,-99.99,,,0.00,0,weatherlink.com 1.10,2013-03-15 10:20:00,
2013-03-15 04:35:00,46.5,27.0,29.83,West,276,0.0,-999.0,47,-99.99,,,0.00,0,weatherlink.com 1.10,2013-03-15 10:35:00,
2013-03-15 04:50:00,46.0,27.0,29.83,West,276,0.0,-999.0,48,-99.99,,,0.00,0,weatherlink.com 1.10,2013-03-15 10:50:00,
2013-03-15 05:05:00,45.4,28.0,29.83,West,276,0.0,-999.0,50,-99.99,,,0.00,0,weatherlink.com 1.10,2013-03-15 11:05:00,
2013-03-15 05:20:00,44.9,28.0,29.83,West,276,0.0,-999.0,51,-99.99,,,0.00,0,weatherlink.com 1.10,2013-03-15 11:20:00,
2013-03-15 05:35:00,44.6,27.0,29.82,West,276,0.0,-999.0,51,-99.99,,,0.00,0,weatherlink.com 1.10,2013-03-15 11:35:00,
2013-03-15 05:50:00,43.8,27.0,29.82,West,276,0.0,-999.0,52,-99.99,,,0.00,0,weatherlink.com 1.10,2013-03-15 11:50:00,
2013-03-15 06:05:00,43.6,27.0,29.82,West,276,0.0,-999.0,52,-99.99,,,0.00,0,weatherlink.com 1.10,2013-03-15 12:05:00,
2013-03-15 06:20:00,43.7,27.0,29.81,West,276,0.0,-999.0,52,-99.99,,,0.00,0,weatherlink.com 1.10,2013-03-15 12:20:00,
2013-03-15 06:35:00,43.7,27.0,29.81,West,276,0.0,-999.0,52,-99.99,,,0.00,0,weatherlink.com 1.10,2013-03-15 12:35:00,
2013-03-15 06:50:00,44.0,27.0,29.81,West,276,0.0,-999.0,52,-99.99,,,0.00,0,weatherlink.com 1.10,2013-03-15 12:50:00,
2013-03-15 07:05:00,43.9,27.0,29.81,West,276,0.0,-999.0,52,-99.99,,,0.00,0,weatherlink.com 1.10,2013-03-15 13:05:00,
2013-03-15 07:21:00,43.5,27.0,29.81,West,276,2.0,-999.0,53,-99.99,,,0.00,5,weatherlink.com 1.10,2013-03-15 13:21:00,
2013-03-15 07:36:00,43.7,27.0,29.81,West,276,0.0,-999.0,53,-99.99,,,0.00,14,weatherlink.com 1.10,2013-03-15 13:36:00,
2013-03-15 07:51:00,43.8,27.0,29.81,West,276,0.0,-999.0,53,-99.99,,,0.00,30,weatherlink.com 1.10,2013-03-15 13:51:00,
2013-03-15 08:06:00,43.9,28.0,29.80,West,276,0.0,-999.0,54,-99.99,,,0.00,40,weatherlink.com 1.10,2013-03-15 14:06:00,
2013-03-15 08:51:00,46.0,28.0,29.80,SSE,165,0.0,-999.0,50,-99.99,,,0.00,109,weatherlink.com 1.10,2013-03-15 14:51:00,
2013-03-15 09:06:00,47.0,29.0,29.79,SSE,165,3.0,-999.0,50,-99.99,,,0.00,174,weatherlink.com 1.10,2013-03-15 15:06:00,
2013-03-15 09:21:00,48.5,30.0,29.79,SSE,165,0.0,-999.0,49,-99.99,,,0.00,142,weatherlink.com 1.10,2013-03-15 15:21:00,
2013-03-15 09:36:00,50.1,30.0,29.78,SSE,165,1.0,-999.0,46,-99.99,,,0.00,153,weatherlink.com 1.10,2013-03-15 15:36:00,
2013-03-15 09:51:00,52.8,31.0,29.79,SSE,165,3.0,-999.0,43,-99.99,,,0.00,251,weatherlink.com 1.10,2013-03-15 15:51:00,
2013-03-15 10:06:00,54.9,31.0,29.79,East,96,0.0,-999.0,40,-99.99,,,0.00,341,weatherlink.com 1.10,2013-03-15 16:06:00,
2013-03-15 10:21:00,57.7,31.0,29.79,ENE,78,0.0,-999.0,37,-99.99,,,0.00,360,weatherlink.com 1.10,2013-03-15 16:21:00,
2013-03-15 10:36:00,56.7,32.0,29.80,NE,43,3.0,-999.0,40,-99.99,,,0.00,322,weatherlink.com 1.10,2013-03-15 16:36:00,
2013-03-15 10:51:00,56.0,32.0,29.82,NE,41,3.0,-999.0,41,-99.99,,,0.00,329,weatherlink.com 1.10,2013-03-15 16:51:00,
2013-03-15 11:06:00,55.3,33.0,29.82,NNE,24,4.0,-999.0,43,-99.99,,,0.00,336,weatherlink.com 1.10,2013-03-15 17:06:00,
2013-03-15 11:21:00,55.0,33.0,29.83,NNE,24,4.0,-999.0,43,-99.99,,,0.00,431,weatherlink.com 1.10,2013-03-15 17:21:00,
2013-03-15 11:36:00,55.2,32.0,29.82,NNE,17,5.0,-999.0,42,-99.99,,,0.00,424,weatherlink.com 1.10,2013-03-15 17:36:00,
2013-03-15 11:51:00,56.4,32.0,29.82,NNE,14,7.0,-999.0,40,-99.99,,,0.00,443,weatherlink.com 1.10,2013-03-15 17:51:00,
2013-03-15 12:21:00,62.2,32.0,29.80,NNE,12,6.0,-999.0,32,-99.99,,,0.00,343,weatherlink.com 1.10,2013-03-15 18:21:00,
2013-03-15 12:36:00,62.9,32.0,29.79,NNE,19,7.0,-999.0,31,-99.99,,,0.00,272,weatherlink.com 1.10,2013-03-15 18:36:00,
2013-03-15 12:51:00,62.3,31.0,29.79,NNE,25,6.0,-999.0,31,-99.99,,,0.00,262,weatherlink.com 1.10,2013-03-15 18:51:00,
2013-03-15 13:06:00,63.0,33.0,29.79,NNE,22,2.0,-999.0,32,-99.99,,,0.00,283,weatherlink.com 1.10,2013-03-15 19:06:00,
2013-03-15 13:21:00,64.1,32.0,29.78,North,5,3.0,-999.0,30,-99.99,,,0.00,362,weatherlink.com 1.10,2013-03-15 19:21:00,
2013-03-15 13:37:00,66.7,32.0,29.78,North,360,5.0,-999.0,27,-99.99,,,0.00,383,weatherlink.com 1.10,2013-03-15 19:37:00,
2013-03-15 13:52:00,68.6,29.0,29.77,NNW,337,11.0,-999.0,23,-99.99,,,0.00,580,weatherlink.com 1.10,2013-03-15 19:52:00,
2013-03-15 14:22:00,69.3,30.0,29.77,NNW,344,7.0,-999.0,23,-99.99,,,0.00,696,weatherlink.com 1.10,2013-03-15 20:22:00,
2013-03-15 14:37:00,68.6,29.0,29.76,NNW,347,9.0,-999.0,23,-99.99,,,0.00,352,weatherlink.com 1.10,2013-03-15 20:37:00,
2013-03-15 14:52:00,68.8,29.0,29.76,NNW,342,10.0,-999.0,23,-99.99,,,0.00,601,weatherlink.com 1.10,2013-03-15 20:52:00,
2013-03-15 15:07:00,68.1,30.0,29.77,NNW,346,12.0,-999.0,24,-99.99,,,0.00,591,weatherlink.com 1.10,2013-03-15 21:07:00,
2013-03-15 15:22:00,68.3,29.0,29.77,NNW,348,11.0,-999.0,23,-99.99,,,0.00,619,weatherlink.com 1.10,2013-03-15 21:22:00,
2013-03-15 15:37:00,67.7,30.0,29.77,NNW,344,4.0,-999.0,24,-99.99,,,0.00,561,weatherlink.com 1.10,2013-03-15 21:37:00,
2013-03-15 15:52:00,66.8,30.0,29.78,NNW,336,9.0,-999.0,25,-99.99,,,0.00,425,weatherlink.com 1.10,2013-03-15 21:52:00,
2013-03-15 16:07:00,66.6,30.0,29.78,NNW,327,10.0,-999.0,25,-99.99,,,0.00,90,weatherlink.com 1.10,2013-03-15 22:07:00,
2013-03-15 16:22:00,66.3,29.0,29.79,NNW,344,7.0,-999.0,25,-99.99,,,0.00,403,weatherlink.com 1.10,2013-03-15 22:22:00,
2013-03-15 16:37:00,65.9,30.0,29.79,North,360,6.0,-999.0,26,-99.99,,,0.00,357,weatherlink.com 1.10,2013-03-15 22:37:00,
2013-03-15 16:52:00,65.8,30.0,29.79,NNW,330,7.0,-999.0,26,-99.99,,,0.00,323,weatherlink.com 1.10,2013-03-15 22:52:00,
2013-03-15 17:07:00,65.1,30.0,29.80,NNW,339,10.0,-999.0,27,-99.99,,,0.00,283,weatherlink.com 1.10,2013-03-15 23:07:00,
2013-03-15 17:22:00,63.9,29.0,29.81,NNE,15,10.0,-999.0,27,-99.99,,,0.00,239,weatherlink.com 1.10,2013-03-15 23:22:00,
2013-03-15 17:37:00,62.7,29.0,29.82,NNE,19,7.0,-999.0,28,-99.99,,,0.00,206,weatherlink.com 1.10,2013-03-15 23:37:00,
2013-03-15 17:52:00,61.9,29.0,29.83,NNE,17,3.0,-999.0,29,-99.99,,,0.00,113,weatherlink.com 1.10,2013-03-15 23:52:00,
2013-03-15 18:07:00,60.5,29.0,29.83,North,355,7.0,-999.0,30,-99.99,,,0.00,54,weatherlink.com 1.10,2013-03-16 00:07:00,
2013-03-15 18:22:00,59.3,28.0,29.84,North,360,3.0,-999.0,31,-99.99,,,0.00,33,weatherlink.com 1.10,2013-03-16 00:22:00,
2013-03-15 18:37:00,58.7,29.0,29.85,North,5,5.0,-999.0,33,-99.99,,,0.00,12,weatherlink.com 1.10,2013-03-16 00:37:00,
2013-03-15 18:52:00,57.6,29.0,29.86,North,355,5.0,-999.0,34,-99.99,,,0.00,5,weatherlink.com 1.10,2013-03-16 00:52:00,
2013-03-15 19:07:00,56.7,30.0,29.87,North,5,5.0,-999.0,36,-99.99,,,0.00,0,weatherlink.com 1.10,2013-03-16 01:07:00,
2013-03-15 19:22:00,54.9,30.0,29.90,NNE,17,9.0,-999.0,39,-99.99,,,0.00,0,weatherlink.com 1.10,2013-03-16 01:22:00,
2013-03-15 19:37:00,53.2,30.0,29.91,NNE,13,12.0,-999.0,42,-99.99,,,0.00,0,weatherlink.com 1.10,2013-03-16 01:37:00,
2013-03-15 19:52:00,52.0,31.0,29.92,NNE,14,6.0,-999.0,44,-99.99,,,0.00,0,weatherlink.com 1.10,2013-03-16 01:52:00,
2013-03-15 20:22:00,49.7,30.0,29.92,North,355,5.0,-999.0,47,-99.99,,,0.00,0,weatherlink.com 1.10,2013-03-16 02:22:00,
2013-03-15 20:37:00,48.7,30.0,29.92,North,9,6.0,-999.0,48,-99.99,,,0.00,0,weatherlink.com 1.10,2013-03-16 02:37:00,
2013-03-15 20:52:00,48.6,30.0,29.94,NNE,28,6.0,-999.0,48,-99.99,,,0.00,0,weatherlink.com 1.10,2013-03-16 02:52:00,
2013-03-15 21:07:00,47.6,29.0,29.95,North,5,5.0,-999.0,49,-99.99,,,0.00,0,weatherlink.com 1.10,2013-03-16 03:07:00,
2013-03-15 21:22:00,46.5,29.0,29.97,NNE,21,5.0,-999.0,51,-99.99,,,0.00,0,weatherlink.com 1.10,2013-03-16 03:22:00,
2013-03-15 21:37:00,45.4,29.0,29.98,NNE,15,4.0,-999.0,53,-99.99,,,0.00,0,weatherlink.com 1.10,2013-03-16 03:37:00,
2013-03-15 21:52:00,44.2,29.0,29.99,North,360,6.0,-999.0,56,-99.99,,,0.00,0,weatherlink.com 1.10,2013-03-16 03:52:00,
2013-03-15 22:07:00,42.8,29.0,30.00,North,9,7.0,-999.0,58,-99.99,,,0.00,0,weatherlink.com 1.10,2013-03-16 04:07:00,
2013-03-15 22:22:00,40.1,28.0,30.01,North,355,7.0,-999.0,62,-99.99,,,0.00,0,weatherlink.com 1.10,2013-03-16 04:22:00,
2013-03-15 22:37:00,37.6,27.0,30.01,NNE,18,9.0,-999.0,65,-99.99,,,0.00,0,weatherlink.com 1.10,2013-03-16 04:37:00,
2013-03-15 22:52:00,36.5,27.0,30.02,NNE,19,10.0,-999.0,68,-99.99,,,0.00,0,weatherlink.com 1.10,2013-03-16 04:52:00,
2013-03-15 23:07:00,35.5,27.0,30.03,North,11,7.0,-999.0,70,-99.99,,,0.00,0,weatherlink.com 1.10,2013-03-16 05:07:00,
2013-03-15 23:23:00,34.8,26.0,30.04,North,10,3.0,-999.0,71,-99.99,,,0.00,0,weatherlink.com 1.10,2013-03-16 05:23:00,
2013-03-15 23:38:00,34.4,26.0,30.06,NNE,17,5.0,-999.0,72,-99.99,,,0.00,0,weatherlink.com 1.10,2013-03-16 05:38:00,
2013-03-15 23:53:00,34.4,26.0,30.06,NNE,24,3.0,-999.0,72,-99.99,,,0.00,0,weatherlink.com 1.10,2013-03-16 05:53:00,